Regional Weather Roundup
Issued by NWS New Orleans/Baton Rouge, LA

Current Version | Previous Version | Text Only | Print | Product List | Glossary On
Versions: 1 2 3 4 5 6 7 8 9 10 11 12 13 14 15 16 17 18 19 20 21 22 23 24 25 26 27 28
000
ASUS44 KLIX 302310
RWRLIX
NEW ORLEANS REGIONAL WEATHER ROUNDUP
NATIONAL WEATHER SERVICE NEW ORLEANS LA
500 PM CST WED NOV 30 2022

NOTE: "FAIR" INDICATES FEW OR NO CLOUDS BELOW 12,000 FEET WITH NO
      SIGNIFICANT WEATHER AND/OR OBSTRUCTIONS TO VISIBILITY.
      SKY/WX - SKY CONDITION AND SIGNIFICANT WEATHER.
      TMP - AIR TEMPERATURE.     DP    - DEWPOINT TEMPERATURE.
      RH  - RELATIVE HUMIDITY.   PRES  - PRESSURE.
      HI  - HEAT INDEX.          WCI   - WIND CHILL INDEX.

*  THESE STATIONS ARE NOT NWS OR FAA STATIONS AND ARE NOT UNDER
   NWS QUALITY CONTROL.

LAZ038-048-061-063-065>067-069-076-077-010000-
SOUTHEAST LOUISIANA

CITY           SKY/WX    TMP DP  RH WIND       PRES   REMARKS
N.O. INTL ARPT PTCLDY    63  42  46 N12G20    30.24R
N.O. DWNTWN HE FAIR      64  41  42 N8G17     30.24R
N.O. LAKEFRONT CLEAR     62  47  57 N17       30.24R
RESERVE*       FAIR      61  36  39 N15       30.25R
SLIDELL        CLEAR     60  41  49 N8        30.24R
BATON ROUGE    CLEAR     58  35  42 N9        30.28R
BOOTHVILLE*    NOT AVBL
BELLE CHASSE*  PTCLDY    63  41  44 N9        30.22R
BOGALUSA*      FAIR      58  38  48 N6        30.28R
GALLIANO*      PTCLDY    64  42  44 N13G20    30.22R
NEW ROADS*     FAIR      55  31  40 N12       30.31R
GONZALES*      FAIR      62  33  34 N9G17     30.25R
HAMMOND*       CLEAR     57  36  44 N10G17    30.28
HOUMA*         CLEAR     63  39  42 N15       30.22R

$$

MSZ070-077-080>082-010000-
SOUTHERN MISSISSIPPI

CITY           SKY/WX    TMP DP  RH WIND       PRES   REMARKS
MCCOMB         CLEAR     53  32  44 N10       30.30R
GULFPORT       CLEAR     63  37  38 N10G21    30.22R
BILOXI         CLEAR     62  41  46 N12       30.20R
PASCAGOULA     CLEAR     60  39  45 N9        30.22R
STENNIS ARPT*  CLEAR     61  39  44 N12G20    30.23R

$$

COASTAL OBSERVATIONS
LAKE AND NEARSHORE STATIONS

STATION/POSITION TIME  SKY/WX   TEMP    WIND        PRES    WAVE
                                AIR SEA DIR/SP/G            HT/PER
                 (UTC)          (F)     (DEG/KT/KT) (MB)    (FT/S)
WAVELAND YACHT   2230            70 66  360/ 14/ 18 1023.6
GRAND ISLE       2230            67 70              1022.4
SOUTHWEST PASS   2230            68                 1021.2
NEW CANAL        2230            62 68   10/ 12/ 15 1022.9
SHELL BEACH      2230            65 62  360/ 18/ 21 1023.0

OFFSHORE STATIONS

STATION/POSITION TIME  SKY/WX   TEMP    WIND        PRES    WAVE
                                AIR SEA DIR/SP/G            HT/PER
                 (UTC)          (F)     (DEG/KT/KT) (MB)    (FT/S)
64 S DAUPHIN ISL 2250            71      10/ 21/ 27 1021.5    5/ 5
SW PASS ENTRANCE 2230            70 72                N/A     4/ 4
LA OFFSHORE OIL  2250                                 N/A     4

$$




USA.gov is the U.S. government's official web portal to all federal, state and local government web resources and services.